Burnside, LA

12:41 PM CDT on August 31, 2016 (GMT -0500)
Gonzales

Weather History for KL38 - August, 2013

Change the Weather History Date:

Monday, August 19, 2013

  Actual Average (KBTR) Record (KBTR)
Temperature  
Mean Temperature 79 °F 83 °F  
Max Temperature 87 °F 93 °F 110 °F (1909)
Min Temperature 71 °F 74 °F 65 °F (1943)
Degree Days  
Heating Degree Days 0 0  
Month to date heating degree days 0  
Since 1 June heating degree days 0  
Since 1 July heating degree days 0  
Cooling Degree Days 14 18  
Month to date cooling degree days 342  
Year to date cooling degree days 1947  
Since 1 June cooling degree days 1382  
Growing Degree Days 29 (Base 50)    
Moisture  
Dew Point 72 °F    
Average Humidity 86    
Maximum Humidity 99    
Minimum Humidity 63    
Precipitation  
Precipitation 0.00 in 0.20 in 2.50 in (1897)
Month to date precipitation 3.67  
Year to date precipitation 39.56  
Snow  
Snow 0.00 in - - ()
Month to date snowfall  
Since 1 June snowfall  
Since 1 July snowfall  
Snow Depth -    
Sea Level Pressure  
Sea Level Pressure 30.01 in    
Wind  
Wind Speed 1 mph (North)    
Max Wind Speed 14 mph    
Max Gust Speed 22 mph    
Visibility 10 miles    
Events Thunderstorm    
T = Trace of Precipitation, MM = Missing Value Source: NWS Daily Summary

Daily Weather History Graph

Daily Weather History Graph

Search for Another Location

Airport or City:

Trip Planner

Search our weather history database for the weather conditions in past years. The results will help you decide how hot, cold, wet, or windy it might be!

Date:

Astronomy

Aug. 19, 2013 Rise Set
Actual Time 6:33 AM CDT 7:40 PM CDT
Civil Twilight 6:08 AM CDT 8:05 PM CDT
Nautical Twilight 5:38 AM CDT 8:35 PM CDT
Astronomical Twilight 5:08 AM CDT 9:05 PM CDT
Moon 6:32 PM CDT (8/19) 4:55 AM CDT (8/19)
Length of Visible Light 13h 57m
Length of Day
13h 07m
Waxing Gibbous, 97% of the Moon is Illuminated
Aug 19
Waxing Gibbous
Aug 20
Full
Aug 28
Last Quarter
Sep 5
New
Sep 12
First Quarter

Hourly Weather History & Observations

Time (CDT) Temp. Heat Index Dew Point Humidity Pressure Visibility Wind Dir Wind Speed Gust Speed Precip Events Conditions
12:15 AM 74.3 °F - 72.0 °F 92% 30.00 in 10.0 mi Calm Calm - N/A   Clear
12:35 AM 73.4 °F - 71.6 °F 94% 30.00 in 10.0 mi Calm Calm - N/A   Clear
12:55 AM 73.6 °F - 71.6 °F 93% 30.00 in 10.0 mi Calm Calm - N/A   Clear
1:15 AM 72.7 °F - 71.4 °F 96% 30.00 in 10.0 mi Calm Calm - N/A   Clear
1:35 AM 73.0 °F - 71.6 °F 95% 30.00 in 10.0 mi Calm Calm - N/A   Clear
1:55 AM 72.1 °F - 71.1 °F 96% 30.00 in 10.0 mi Calm Calm - N/A   Clear
2:15 AM 72.5 °F - 71.1 °F 95% 30.00 in 10.0 mi Calm Calm - N/A   Clear
2:35 AM 72.5 °F - 71.4 °F 96% 30.00 in 10.0 mi Calm Calm - N/A   Scattered Clouds
2:55 AM 72.7 °F - 71.6 °F 96% 30.00 in 10.0 mi Calm Calm - N/A   Overcast
3:15 AM 72.9 °F - 71.8 °F 96% 30.01 in 10.0 mi Calm Calm - N/A   Overcast
3:35 AM 72.7 °F - 71.8 °F 97% 30.01 in 10.0 mi Calm Calm - N/A   Overcast
3:55 AM 72.7 °F - 71.8 °F 97% 30.00 in 10.0 mi North 3.5 mph - N/A   Mostly Cloudy
4:15 AM 72.7 °F - 71.8 °F 97% 30.00 in 10.0 mi Calm Calm - N/A   Mostly Cloudy
4:35 AM 72.5 °F - 71.6 °F 97% 30.00 in 10.0 mi North 4.6 mph - N/A   Scattered Clouds
4:55 AM 72.3 °F - 71.6 °F 98% 30.00 in 10.0 mi NNW 4.6 mph - N/A   Mostly Cloudy
5:15 AM 72.1 °F - 71.6 °F 98% 30.00 in 10.0 mi Calm Calm - N/A   Overcast
5:35 AM 72.0 °F - 71.6 °F 99% 30.00 in 10.0 mi North 4.6 mph - N/A   Overcast
5:55 AM 72.0 °F - 71.6 °F 99% 30.00 in 10.0 mi Calm Calm - N/A   Overcast
6:15 AM 72.0 °F - 71.6 °F 99% 30.01 in 10.0 mi NNW 4.6 mph - N/A   Overcast
6:35 AM 72.0 °F - 71.6 °F 99% 30.01 in 7.0 mi Calm Calm - N/A   Overcast
6:55 AM 71.8 °F - 71.4 °F 99% 30.02 in 7.0 mi North - - N/A   Overcast
7:15 AM 72.0 °F - 71.6 °F 99% 30.02 in 10.0 mi North - - N/A   Overcast
7:35 AM 72.1 °F - 71.6 °F 98% 30.03 in 10.0 mi Calm Calm - N/A   Overcast
7:55 AM 72.5 °F - 71.6 °F 97% 30.03 in 10.0 mi North - - N/A   Overcast
8:15 AM 73.0 °F - 71.6 °F 95% 30.04 in 10.0 mi North - - N/A   Overcast
8:35 AM 73.4 °F - 71.6 °F 94% 30.04 in 10.0 mi Calm Calm - N/A   Overcast
8:55 AM 74.3 °F - 71.8 °F 92% 30.05 in 10.0 mi Calm Calm - N/A   Overcast
9:15 AM 75.2 °F - 71.6 °F 89% 30.05 in 10.0 mi ENE 3.5 mph - N/A   Overcast
9:35 AM 75.2 °F - 71.8 °F 89% 30.05 in 10.0 mi Calm Calm - N/A   Overcast
9:55 AM 75.7 °F - 71.8 °F 87% 30.05 in 10.0 mi Calm Calm - N/A   Overcast
10:15 AM 76.5 °F - 71.6 °F 85% 30.05 in 10.0 mi Calm Calm - N/A   Overcast
10:35 AM 77.7 °F - 72.0 °F 82% 30.05 in 10.0 mi Calm Calm - N/A   Mostly Cloudy
10:55 AM 78.4 °F - 72.0 °F 80% 30.05 in 10.0 mi Calm Calm - N/A   Scattered Clouds
11:15 AM 79.3 °F - 72.3 °F 79% 30.05 in 10.0 mi Calm Calm - N/A   Scattered Clouds
11:35 AM 79.3 °F - 72.0 °F 78% 30.05 in 10.0 mi Calm Calm - N/A   Scattered Clouds
11:55 AM 80.2 °F 84.2 °F 72.0 °F 76% 30.04 in 10.0 mi Calm Calm - N/A   Scattered Clouds
12:15 PM 81.9 °F 86.4 °F 71.8 °F 71% 30.04 in 10.0 mi Calm Calm - N/A   Clear
12:35 PM 81.9 °F 85.8 °F 70.5 °F 68% 30.03 in 10.0 mi Calm Calm - N/A   Clear
12:55 PM 82.6 °F 86.6 °F 70.3 °F 66% 30.03 in 10.0 mi Calm Calm - N/A   Clear
1:15 PM 82.9 °F 87.5 °F 71.1 °F 67% 30.02 in 10.0 mi Calm Calm - N/A   Mostly Cloudy
1:35 PM 83.3 °F 88.2 °F 71.4 °F 67% 30.02 in 10.0 mi Calm Calm - N/A   Overcast
1:55 PM 84.2 °F 89.9 °F 72.0 °F 67% 30.01 in 10.0 mi WSW 3.5 mph - N/A   Mostly Cloudy
2:15 PM 85.5 °F 91.8 °F 72.7 °F 65% 30.00 in 10.0 mi North 3.5 mph - N/A   Mostly Cloudy
2:35 PM 86.4 °F 93.0 °F 72.3 °F 63% 30.00 in 10.0 mi NE 4.6 mph - N/A   Overcast
2:55 PM 86.2 °F 93.8 °F 73.4 °F 66% 29.99 in 10.0 mi WNW 3.5 mph - N/A   Scattered Clouds
3:15 PM 85.1 °F 91.5 °F 72.5 °F 66% 29.98 in 10.0 mi Calm Calm - N/A   Scattered Clouds
3:35 PM 85.1 °F 91.5 °F 72.7 °F 66% 29.98 in 10.0 mi Calm Calm - N/A   Scattered Clouds
3:55 PM 86.9 °F 94.1 °F 73.0 °F 63% 29.98 in 10.0 mi West 4.6 mph - N/A   Scattered Clouds
4:15 PM 86.2 °F 93.0 °F 72.7 °F 64% 29.97 in 10.0 mi Calm Calm - N/A   Scattered Clouds
4:35 PM 87.1 °F 94.5 °F 73.0 °F 63% 29.97 in 10.0 mi NNW 5.8 mph - N/A Thunderstorm Scattered Clouds
4:55 PM 86.4 °F 93.4 °F 72.7 °F 64% 29.98 in 10.0 mi SSE 13.8 mph 21.9 mph N/A   Mostly Cloudy
5:15 PM 79.9 °F - 73.2 °F 80% 29.99 in 10.0 mi SE 8.1 mph - N/A Thunderstorm Mostly Cloudy
5:35 PM 78.8 °F - 72.7 °F 81% 29.98 in 10.0 mi SSE 6.9 mph - N/A Thunderstorm Mostly Cloudy
5:55 PM 78.6 °F - 72.3 °F 81% 29.98 in 10.0 mi East 4.6 mph - N/A   Overcast
6:15 PM 77.9 °F - 72.1 °F 82% 29.98 in 10.0 mi Calm Calm - N/A   Overcast
6:35 PM 78.1 °F - 72.9 °F 84% 29.98 in 10.0 mi Calm Calm - N/A   Mostly Cloudy
6:55 PM 78.3 °F - 73.4 °F 85% 29.98 in 10.0 mi East 3.5 mph - N/A   Mostly Cloudy
7:15 PM 77.9 °F - 73.4 °F 86% 29.98 in 10.0 mi Calm Calm - N/A   Scattered Clouds
7:35 PM 77.2 °F - 73.4 °F 88% 29.98 in 10.0 mi Calm Calm - N/A   Clear
7:55 PM 76.6 °F - 73.4 °F 90% 29.98 in 10.0 mi Calm Calm - N/A   Clear
8:15 PM 76.6 °F - 73.6 °F 90% 29.98 in 10.0 mi Calm Calm - N/A   Clear
8:35 PM 76.5 °F - 73.4 °F 90% 29.97 in 10.0 mi Calm Calm - N/A   Clear
8:55 PM 76.5 °F - 73.0 °F 89% 29.98 in 10.0 mi Calm Calm - N/A   Clear
9:15 PM 74.7 °F - 72.7 °F 94% 29.98 in 10.0 mi Calm Calm - N/A   Clear
9:35 PM 74.8 °F - 72.9 °F 94% 29.99 in 10.0 mi Calm Calm - N/A   Clear
9:55 PM 74.5 °F - 72.9 °F 95% 30.00 in 10.0 mi Calm Calm - N/A   Clear
10:15 PM 74.3 °F - 72.7 °F 95% 30.00 in 10.0 mi Calm Calm - N/A   Clear
10:35 PM 73.4 °F - 72.3 °F 96% 30.00 in 10.0 mi Calm Calm - N/A   Clear
10:55 PM 73.8 °F - 72.5 °F 96% 30.01 in 10.0 mi Calm Calm - N/A   Clear
11:15 PM 74.1 °F - 73.0 °F 96% 30.01 in 10.0 mi Calm Calm - N/A   Clear
11:35 PM 73.4 °F - 72.5 °F 97% 30.00 in 10.0 mi Calm Calm - N/A   Clear
11:55 PM 73.4 °F - 72.3 °F 96% 30.00 in 10.0 mi Calm Calm - N/A   Clear